ALEXANDRIA / NOUZHA current weather conditions

sailwx.info

Wind from 290 at 2 knots

Air temperature 33.0° C
Dewpoint 14.0° C

Last reported at 2015-Sep-02 07:00 UTC.
Time now 2015-Sep-02 08:36 UTC

Location: N 31°12' E 029°57'.
View on Google Maps.

See reports from other nearby stations

  
Tides and Currents Weather Stations Pressure Air Temp Water Temp Dewpoint Dewpoint Depression Visibility Wind Speed Wind Dir Waves Ship Positions
date/time (UTC)wind fromknots sea level pressurealtimeterstation pressurevisibilityair tempwater tempwave heightnotes
2015-Sep-02 07:00 290 2 33.0
2015-Sep-02 06:00 340 9 28.0
2015-Sep-02 05:00 330 9 27.0
2015-Sep-02 04:00 340 6 26.0
2015-Sep-02 03:00 330 7 29.0
2015-Sep-02 02:00 340 5 26.0
2015-Sep-02 01:00 350 6 27.0
2015-Sep-02 00:00 340 8 27.0
2015-Sep-01 23:00 320 6 27.0
2015-Sep-01 22:00 340 8 27.0
2015-Sep-01 21:00 350 7 27.0
2015-Sep-01 20:00 340 10 27.0
2015-Sep-01 19:00 340 10 27.0
2015-Sep-01 18:00 350 9 28.0
2015-Sep-01 17:00 340 10 28.0
2015-Sep-01 16:00 310 9 29.0
2015-Sep-01 15:00 340 11 30.0
2015-Sep-01 14:00 320 10 31.0
2015-Sep-01 13:00 310 9 32.0
2015-Sep-01 12:00 310 9 32.0
2015-Sep-01 11:00 330 8 32.0
2015-Sep-01 10:00 320 6 31.0
2015-Sep-01 09:00 340 6 5.431.0
2015-Sep-01 08:00 330 7 5.430.0
2015-Sep-01 07:00 320 6 5.429.0
2015-Sep-01 06:00 340 7 5.428.0
2015-Sep-01 05:00 010 7 28.0
2015-Sep-01 04:00 350 6 27.0
2015-Sep-01 03:00 330 3 26.0
2015-Sep-01 02:00 340 7 26.0
2015-Sep-01 01:00 320 5 27.0
2015-Sep-01 00:00 320 4 27.0
2015-Aug-31 23:00 330 6 27.0
2015-Aug-31 22:00 320 7 27.0
2015-Aug-31 21:00 330 7 28.0
2015-Aug-31 20:00 300 6 28.0
2015-Aug-31 19:00 340 8 28.0
2015-Aug-31 18:00 320 6 28.0
2015-Aug-31 17:00 330 8 29.0
2015-Aug-31 16:00 320 7 29.0
2015-Aug-31 15:00 330 8 31.0
2015-Aug-31 14:00 340 9 31.0
2015-Aug-31 13:00 330 12 32.0
2015-Aug-31 12:00 330 10 31.0
2015-Aug-31 11:00 320 6 32.0
2015-Aug-31 10:00 320 8 31.0
2015-Aug-31 09:00 330 7 31.0
2015-Aug-31 08:00 360 6 30.0